Location: Downe
(51.3167°N, 0.0500°E)
Time: 12:58:30
(UTC+00:00)

Cosmos 2298 Rocket - Pass Details

Date: 17 November 2019
Orbit: 777 x 783 km, 74.0° (Epoch: 15 December)

Event Time Altitude Azimuth Distance (km) Brightness Sun altitude
Rises 06:20:30 0° 220° (SW) 3,254 7.0 -9.3°
Reaches altitude 10° 06:22:57 10° 225° (SW) 2,329 6.3 -8.9°
Maximum altitude 06:28:06 50° 301° (WNW) 985 4.2 -8.2°
Drops below altitude 10° 06:33:16 10° 17° (NNE) 2,340 6.5 -7.4°
Sets 06:35:45 0° 23° (NNE) 3,271 7.3 -7.0°
